Flag for Germany Weather past 2 weeks in Papenburg, Lower Saxony, Germany

Now
65 °F

Overcast.


Feels Like: 65 °F
Forecast: 53 / 65 °F
Wind: 2 mph from Northwest

Location: Emden-Koenigspolder

Current Time: Aug 30, 2014 at 6:44:09 PM

Latest Report: Aug 30, 2014 at 6:00 PM


Visibility: 38 mi

Pressure: 29.87 "Hg

Humidity: 75%

Dew point: 57 °F

Location of PapenburgLocation

Historic Weather in Papenburg — Graph

°F

Papenburg temperature yesterday

Maximum temperature yesterday: 71 °F (at 2:00 PM)
Minimum temperature yesterday: 61 °F (at 10:00 AM)
Average temperature yesterday: 65 °F

Past Weeks' High & Low Weather Summary

 TemperatureHumidityPressure
High74 °F (Aug 28, 3:00 PM)100% (Aug 28, 8:00 AM)30.04 "Hg (Aug 28, 8:00 AM)
Low43 °F (Aug 26, 5:00 AM)50% (Aug 26, 2:00 PM)29.44 "Hg (Aug 18, 10:00 AM)
Average57 °F82%29.85 "Hg
* Reported Aug 15 6:00 PM — Aug 30 6:00 PM, Papenburg, Weather by CustomWeather, © 2014

Note: Actual official high and low records may vary slightly from our data, if they occured in-between our weather recording intervals... More about our weather records

Advertising

Papenburg weather history for previous 24 hours

 ConditionsComfort  
Time TempWeatherWind HumidityBarometerVisibility
6:00 PM
Aug 30
65 °FOvercast.2 mph75%29.87 "Hg37 mi
4:00 PM67 °FOvercast.3 mph76%29.89 "Hg22 mi
3:00 PM64 °FLow clouds.3 mph88%29.89 "Hg19 mi
2:00 PM68 °FOvercast.7 mph70%29.89 "Hg19 mi
1:00 PM67 °FOvercast.6 mph79%29.89 "Hg10 mi
12:00 PM65 °FOvercast.7 mph83%29.89 "Hg14 mi
10:00 AM61 °FLow clouds.6 mph92%29.88 "Hg9 mi
9:00 AM60 °FLow clouds.6 mph95%29.88 "Hg12 mi
8:00 AM60 °FOvercast.6 mph87%29.87 "Hg15 mi
7:00 AM60 °FOvercast.6 mph88%29.86 "Hg15 mi
6:00 AM60 °FOvercast.5 mph85%29.88 "Hg17 mi
4:00 AM60 °FOvercast.5 mph84%29.90 "Hg19 mi
3:00 AM61 °FOvercast.6 mph82%29.91 "Hg19 mi
2:00 AM62 °FOvercast.6 mph78%29.92 "Hg22 mi
1:00 AM61 °FOvercast.6 mph78%29.92 "Hg22 mi
12:00 AM61 °FOvercast.5 mph78%29.93 "Hg19 mi
11:00 PM
Aug 29
N/APassing clouds.N/AN/AN/A9 mi
9:00 PM64 °FOvercast.3 mph69%29.92 "Hg13 mi
8:00 PM66 °FOvercast.5 mph63%29.92 "Hg31 mi
7:00 PM68 °FPartly sunny.5 mph58%29.91 "Hg19 mi
6:00 PM69 °FPassing clouds.7 mph56%29.91 "Hg19 mi
Weather by CustomWeather, © 2014

See weather overviewHow to use our weather pages